Wind_Speed
12 12 11 11 11 11 11 11 12 12 12 12 12 12 13 13 13 13 14 14 14 14 14 14 14 14 13 13 12 12 12 12 12 12 13 13 13 14 14 14 14 12 11 11 11 10 11 11 11 12 12 12 12 13 12 11 11 11 10 11 13 10 9 9 7 8 7 4 7 9 10 8 5 5 2 2 1 2 8 13 14 12 10 9 9 9 9 9
12 12 11 11 11 11 10 10 10 11 11 11 11 11 11 11 12 12 12 13 13 13 13 13 13 13 12 12 11 11 12 12 11 11 12 13 13 14 14 14 14 13 11 11 11 11 11 11 12 12 12 13 13 13 12 11 12 10 10 13 13 9 11 14 11 12 10 8 10 9 9 9 6 4 0 2 3 2 2 7 12 13 11 11 11 11 10 10
13 12 12 11 11 11 11 11 11 11 10 10 10 10 10 10 11 11 11 12 12 12 12 12 12 12 11 11 11 11 11 11 11 11 11 12 13 13 14 15 15 12 11 11 11 11 11 12 12 12 13 13 13 13 12 12 12 10 12 14 12 12 16 15 13 14 12 10 10 10 9 7 6 5 1 1 1 2 2 2 8 11 12 12 11 12 8 7
14 13 13 13 12 12 12 12 12 12 11 11 11 11 11 10 10 10 10 11 11 11 11 11 11 11 11 11 11 11 11 11 12 11 11 12 12 13 14 15 14 12 11 10 11 11 11 12 12 12 13 13 14 14 13 14 11 11 14 12 12 14 13 13 13 13 14 12 11 11 9 6 7 6 2 1 1 2 2 4 8 11 13 12 10 10 5 4
15 14 14 14 13 13 13 13 13 13 13 12 12 12 12 11 11 11 11 10 10 10 10 10 10 10 10 10 10 11 9 8 10 11 11 12 12 13 14 14 13 12 11 11 11 11 11 12 12 13 12 13 15 13 14 15 12 13 13 12 15 14 10 12 13 12 13 12 11 12 9 7 7 6 4 2 1 4 4 6 10 12 12 10 9 8 4 3
16 15 15 15 14 13 13 13 13 13 13 13 13 13 13 12 12 12 12 11 10 10 9 9 9 9 9 10 10 10 9 7 9 9 9 10 11 13 13 13 13 11 11 11 12 12 12 13 13 13 12 13 13 11 13 14 12 12 12 12 16 15 13 15 14 13 14 12 12 12 10 8 7 5 6 3 2 5 5 7 10 11 11 8 8 7 4 2
16 16 15 15 14 13 13 13 13 12 12 12 12 12 12 12 12 12 13 12 12 10 10 10 9 9 9 9 9 10 11 11 12 11 9 10 10 11 12 13 12 11 11 11 12 13 13 13 13 13 12 12 12 12 13 12 10 11 11 14 15 14 15 16 14 13 14 13 14 13 10 9 7 7 8 5 3 5 5 7 10 11 10 8 8 6 3 4
16 16 15 14 14 13 13 12 12 12 12 11 11 11 11 11 11 11 12 12 12 11 11 10 9 9 9 9 9 10 11 13 14 13 13 12 12 11 11 12 12 12 11 10 12 13 14 14 13 13 10 11 12 12 12 11 11 12 13 14 14 13 15 15 14 13 13 15 15 14 11 8 8 9 10 7 5 6 6 7 9 11 10 9 8 6 4 5
16 15 15 14 14 13 13 12 12 13 12 12 12 11 11 10 10 10 10 10 10 10 10 10 10 10 9 10 10 10 12 12 12 13 14 14 14 13 12 12 12 12 11 11 12 13 14 14 14 13 11 12 13 13 13 9 9 12 12 13 14 14 15 15 15 14 13 15 14 14 12 8 10 10 9 9 8 7 6 6 6 9 11 9 7 6 5 7
16 16 15 15 15 14 14 13 13 14 14 13 13 13 12 11 10 10 10 9 9 8 8 8 9 9 10 11 11 11 12 12 12 12 13 14 14 14 13 12 12 12 12 12 12 12 14 14 15 14 13 15 13 13 14 11 10 12 12 14 15 15 16 17 17 15 14 15 14 14 12 9 10 11 7 9 10 8 7 7 6 7 10 8 7 7 7 9
16 16 16 16 16 15 15 15 15 15 15 15 14 14 13 12 11 11 11 10 9 9 8 8 8 8 9 10 12 13 13 12 12 12 13 14 14 14 14 13 12 12 12 13 12 12 13 12 13 12 12 13 13 13 14 13 13 13 13 14 15 15 16 17 16 14 13 13 12 13 12 11 11 13 11 11 10 9 10 8 7 7 9 9 8 8 7 9
16 17 16 16 16 16 15 15 16 16 16 16 15 15 14 13 12 12 12 11 10 9 9 9 9 9 10 10 11 13 13 13 14 14 14 14 14 14 14 14 14 14 14 13 13 12 12 11 11 10 10 11 10 10 12 13 13 12 13 12 11 13 13 13 13 12 11 11 11 11 11 13 13 13 14 15 11 10 11 9 9 9 9 9 8 7 7 9
16 17 16 16 16 15 15 16 16 16 16 16 16 15 15 14 14 13 13 12 11 11 10 10 10 10 11 12 11 11 11 12 13 15 15 15 16 16 15 15 14 14 14 14 14 13 12 10 10 11 12 10 10 11 10 11 12 10 12 11 8 10 10 11 12 10 9 9 9 8 9 11 11 12 15 16 13 12 11 10 11 10 10 9 9 8 7 10
16 16 16 15 15 15 15 15 16 16 17 16 16 15 15 15 15 14 14 14 13 12 12 12 11 12 13 13 12 11 11 11 12 14 14 15 16 17 17 15 14 13 14 15 14 13 12 12 11 11 13 12 13 14 10 9 10 7 9 11 10 8 7 8 8 3 3 6 6 6 10 10 7 10 16 17 15 14 11 11 12 11 11 10 9 9 8 11
15 15 15 14 15 15 15 15 16 17 17 17 16 16 15 15 15 15 15 15 15 14 14 14 14 14 14 15 14 12 12 12 12 13 13 13 13 15 17 15 14 15 16 15 14 13 12 12 12 11 13 15 15 13 9 8 9 8 9 9 8 9 6 5 7 4 4 4 3 5 10 11 8 8 14 17 16 14 13 13 14 12 11 10 9 9 10 13
15 15 14 14 14 15 15 16 17 17 18 17 17 16 16 17 17 18 18 18 18 17 17 16 16 15 15 16 15 14 13 14 13 13 13 13 13 14 15 15 16 17 17 16 15 14 13 13 13 14 15 15 13 11 9 9 10 11 11 9 7 8 6 5 7 7 7 5 4 7 9 8 8 7 12 16 16 15 14 14 16 14 11 10 10 10 11 13
14 14 14 14 14 15 15 16 18 19 19 18 18 18 18 18 18 19 20 19 19 18 19 18 17 17 17 16 15 14 14 14 15 13 12 13 15 15 14 16 17 18 17 17 16 14 14 14 14 16 16 15 13 11 11 12 13 12 12 11 9 8 7 6 5 5 6 6 5 8 9 9 8 6 10 15 16 15 13 13 17 17 14 12 12 12 13 14
13 13 13 14 14 15 16 17 18 19 19 19 19 18 18 18 19 20 20 19 19 19 19 19 19 17 16 16 19 20 18 16 15 15 13 12 13 14 15 16 17 18 17 16 16 15 14 14 14 13 14 17 16 16 15 12 10 11 11 10 10 9 9 7 6 5 6 6 8 9 10 12 11 9 11 15 16 15 13 12 15 17 16 14 14 14 14 16
13 13 13 14 15 15 16 17 18 19 19 19 18 18 18 18 18 19 19 18 18 17 15 16 18 16 13 13 16 19 20 19 18 17 16 14 12 13 14 17 18 17 16 16 15 16 15 14 15 14 17 20 21 21 18 11 6 8 9 8 8 8 8 8 8 7 7 9 11 12 12 11 11 10 11 16 18 17 15 13 13 16 17 16 16 16 16 18
12 13 13 14 15 15 16 16 17 18 18 17 17 16 16 16 16 17 16 15 15 14 14 16 17 17 18 19 16 13 14 16 16 15 14 14 12 12 14 18 19 18 17 15 13 17 17 14 16 19 19 19 20 21 18 12 9 9 8 8 10 10 9 8 9 7 8 10 12 13 15 13 13 12 11 16 19 19 19 17 16 16 18 19 18 17 18 20
12 13 13 14 15 15 15 16 17 18 17 16 15 14 14 14 14 14 14 12 12 14 15 16 17 17 20 24 21 17 16 15 16 15 15 15 14 13 14 18 21 20 18 15 13 18 18 16 19 19 17 17 19 22 20 18 16 12 11 11 12 12 11 9 9 8 9 12 14 14 15 16 16 14 14 17 19 20 22 22 21 19 19 19 18 18 19 20
13 13 14 14 15 15 15 15 16 17 16 14 13 13 13 13 12 12 13 11 11 13 14 15 15 16 18 20 20 21 24 24 23 22 20 18 15 14 14 18 22 20 19 18 15 16 18 20 20 16 17 22 23 22 20 19 16 13 12 12 13 12 10 11 10 9 9 10 12 12 14 16 16 15 16 19 21 21 22 24 24 23 22 21 20 19 19 20
13 14 14 14 15 15 14 14 15 15 14 13 12 11 11 11 10 10 10 10 10 10 13 14 14 14 16 17 18 21 25 26 26 26 24 22 18 16 16 19 22 19 18 21 18 15 15 17 17 18 23 25 22 22 18 15 14 13 13 13 13 10 8 9 6 5 8 10 11 11 12 15 16 17 18 20 22 21 21 23 25 27 26 24 22 19 18 19
14 14 14 14 15 14 12 13 14 13 13 12 9 9 8 9 8 7 8 9 10 7 8 10 11 13 14 15 17 18 20 23 24 25 28 25 20 20 19 18 21 21 19 20 19 17 13 12 14 19 24 22 17 18 17 14 14 15 16 16 14 10 9 10 8 7 11 13 14 12 12 16 18 19 19 19 21 22 21 23 24 27 27 26 24 21 19 19
14 14 14 14 13 12 12 12 13 12 11 9 7 6 6 6 6 5 5 6 6 4 5 7 7 9 11 10 12 14 16 20 21 24 28 27 23 21 19 18 20 21 20 19 19 18 15 16 18 16 17 18 15 15 16 16 15 15 16 18 16 14 13 14 12 11 12 13 14 12 11 14 16 18 17 16 19 22 22 23 25 26 26 26 26 23 21 21
13 14 13 12 12 11 11 11 11 10 8 7 5 5 4 4 4 3 4 4 3 3 5 7 6 6 6 5 7 8 9 13 18 23 27 27 25 21 16 18 20 19 17 17 17 16 15 19 20 14 11 14 15 15 15 16 16 14 13 13 13 14 15 14 11 11 12 10 9 11 11 10 11 13 14 15 17 19 22 24 26 27 28 28 27 24 23 23
13 13 12 10 11 11 11 10 9 8 7 5 4 3 3 3 3 1 2 3 4 6 6 8 8 6 3 4 3 4 4 8 14 22 26 27 26 23 19 18 19 18 17 16 15 14 17 20 18 15 12 12 14 14 14 16 16 13 10 8 9 11 13 12 12 13 12 8 7 12 12 12 13 12 11 15 16 16 20 25 27 29 31 32 31 28 26 25
13 12 10 9 10 10 9 8 7 6 6 5 2 2 2 3 3 2 1 2 4 6 6 8 10 7 1 4 3 5 6 7 7 15 25 29 27 25 23 19 17 19 21 19 15 12 15 18 17 17 16 14 15 13 11 14 14 11 10 8 6 7 10 11 12 13 11 9 11 15 13 12 14 13 11 14 14 11 15 22 25 28 31 34 35 33 28 27
11 9 8 9 9 8 8 7 6 5 5 4 2 3 3 3 3 3 1 4 4 5 5 6 7 6 0 4 3 5 9 11 7 11 23 30 29 26 23 20 17 17 19 20 16 11 12 14 13 15 18 17 17 15 13 13 12 11 10 7 5 6 8 10 11 12 10 9 12 14 15 12 12 11 12 11 9 8 10 13 16 21 26 30 35 34 31 30
9 8 9 9 8 7 8 6 6 5 5 4 4 4 4 3 4 3 3 4 4 4 5 5 5 4 1 5 4 4 7 13 11 10 17 26 30 29 25 22 19 16 16 18 16 13 14 14 11 12 16 16 15 15 16 15 13 12 9 7 6 6 8 9 10 11 9 10 13 13 13 12 11 8 8 8 9 9 7 5 7 11 16 21 28 32 32 31
7 8 8 8 7 7 7 6 5 5 5 5 5 4 4 4 4 4 4 4 4 3 5 6 6 6 2 5 3 3 5 11 13 9 13 22 26 27 24 20 18 16 15 17 17 16 17 16 12 11 13 13 11 12 15 16 14 13 10 9 9 9 9 10 11 11 9 8 9 10 11 13 11 6 4 7 8 6 3 4 4 6 11 17 24 32 34 31
7 8 8 7 7 7 7 6 6 6 6 6 6 6 6 5 5 6 3 3 3 3 6 7 6 6 4 3 3 4 5 9 14 11 12 19 24 27 26 21 20 20 17 18 18 16 17 16 13 12 13 13 11 10 13 15 14 14 12 12 12 10 9 9 9 9 10 8 6 6 8 11 12 8 9 12 10 7 4 4 4 6 11 16 21 30 34 32
8 8 8 8 7 6 6 6 6 6 7 7 7 7 7 5 5 7 5 3 2 4 6 7 6 5 6 4 3 5 4 6 13 14 12 16 21 24 26 22 21 21 17 18 19 15 14 15 16 16 15 16 16 14 15 16 17 17 16 15 14 9 7 8 8 7 10 8 6 5 7 10 11 9 13 17 14 10 6 5 5 7 12 14 18 25 29 30
8 7 8 7 6 6 6 6 6 7 8 9 9 9 9 6 4 5 5 5 6 7 6 8 8 6 6 5 4 4 3 5 10 14 14 15 18 20 23 23 23 22 16 15 17 16 13 13 16 19 17 18 22 21 16 13 16 18 17 16 15 12 10 7 6 7 8 6 6 7 7 9 9 8 12 16 14 11 9 6 7 8 11 13 16 20 22 23
8 7 7 6 6 5 5 6 6 7 9 10 11 12 10 7 4 3 4 5 8 9 8 10 9 7 6 6 5 4 3 5 7 13 15 15 18 20 22 23 25 24 18 14 14 14 14 12 12 16 16 18 21 23 19 14 13 16 16 16 16 15 14 8 4 4 5 4 6 8 7 6 6 7 10 12 10 11 13 9 6 7 10 12 14 17 19 21
7 7 7 6 5 5 4 5 6 7 9 10 12 12 11 8 4 4 5 5 7 8 7 7 6 5 5 5 5 3 3 5 6 11 15 15 16 18 19 20 23 26 22 17 12 12 13 12 9 12 16 17 18 20 22 19 13 13 15 17 16 14 12 8 4 3 5 6 4 7 9 7 5 5 7 8 8 10 13 11 3 3 5 7 9 12 15 17
7 7 6 6 5 4 4 5 6 6 9 11 13 12 11 11 10 9 9 8 8 8 7 4 3 4 3 4 5 2 4 6 7 10 14 14 13 15 16 16 19 25 24 18 13 11 11 10 9 10 13 18 19 18 21 21 15 12 13 15 14 12 12 10 7 5 6 7 5 7 10 10 8 5 5 5 7 11 14 13 5 1 3 4 4 7 10 12
8 7 6 6 5 5 5 6 6 6 7 10 12 13 10 10 12 12 11 10 9 7 5 4 5 4 2 3 4 2 3 6 7 10 14 14 11 11 15 15 16 20 22 19 14 11 11 10 9 8 10 15 19 17 18 21 20 16 13 11 11 11 12 12 10 6 6 7 6 7 9 9 8 7 7 5 6 11 14 12 8 4 5 7 7 9 11 11
8 6 6 6 6 5 5 5 5 5 6 8 9 11 10 9 11 12 11 10 9 7 4 5 5 4 4 5 5 4 3 4 5 8 11 13 11 9 12 13 12 15 20 19 15 11 11 11 9 8 9 12 16 17 17 19 21 20 16 13 11 11 11 12 12 10 8 7 5 6 7 4 5 7 8 6 5 7 8 8 9 8 8 10 11 11 11 9
8 6 6 7 6 5 5 4 4 4 6 8 8 9 10 9 11 12 11 11 9 6 5 6 6 5 6 6 6 5 4 4 5 7 9 11 11 8 10 13 12 14 19 20 17 13 12 11 10 8 9 12 15 17 17 17 17 18 19 17 14 13 12 10 10 11 10 6 4 6 5 3 4 7 6 5 6 6 7 8 10 11 12 13 13 11 9 9
9 6 7 9 7 6 5 3 4 6 6 8 8 9 11 11 11 12 12 12 10 8 8 7 7 7 6 5 5 5 5 5 6 7 8 9 10 8 9 14 15 14 17 18 18 17 14 13 13 10 11 13 15 15 16 17 17 16 17 18 16 16 14 11 9 12 12 9 5 6 2 5 4 9 7 7 8 8 10 12 11 13 14 13 13 10 8 9
9 6 8 9 8 6 5 3 6 6 6 7 7 9 11 11 11 11 12 13 10 8 8 7 7 8 8 6 6 6 6 6 6 6 7 8 9 10 11 14 15 13 12 14 17 19 17 14 14 14 13 11 11 12 12 14 19 20 17 16 16 15 15 13 9 9 12 11 8 9 4 3 5 7 6 9 9 8 9 10 11 12 12 12 12 10 8 8
8 7 9 9 8 6 4 3 5 4 5 8 9 9 9 10 9 8 9 10 8 6 7 7 6 7 6 6 6 5 6 6 5 5 5 4 7 15 16 15 16 13 9 9 12 19 20 15 14 16 14 11 11 13 12 10 13 17 17 17 17 15 14 15 10 4 8 11 9 9 5 4 6 7 6 9 9 8 9 10 11 13 13 13 12 10 8 7
7 7 8 8 6 4 4 3 4 3 5 7 7 6 6 7 6 5 6 7 6 5 6 6 6 7 8 8 7 5 5 7 5 4 4 3 6 15 19 18 19 19 16 12 10 15 18 16 15 14 11 11 12 13 13 13 11 11 12 15 18 16 16 18 13 8 10 11 10 9 3 5 7 7 6 9 9 8 9 11 13 15 13 11 9 7 7 5
9 8 7 7 5 3 4 5 4 3 4 4 3 2 2 3 4 5 5 6 6 6 5 5 6 8 8 7 7 6 6 8 7 3 2 2 5 12 16 17 18 21 23 20 15 14 15 14 16 15 10 10 12 12 13 15 14 13 13 14 15 15 17 17 14 12 12 10 11 11 3 7 7 7 7 9 8 8 8 9 11 12 10 9 7 6 6 5
8 7 6 6 4 3 4 5 4 3 2 2 1 1 2 1 3 4 5 5 5 6 6 4 4 6 7 7 7 6 6 8 8 5 3 3 6 11 14 15 16 18 20 20 18 19 18 17 18 18 13 8 8 11 15 15 14 13 14 15 14 14 16 14 11 11 13 9 10 12 8 7 9 9 9 9 9 9 10 9 10 10 9 8 8 8 8 8
8 6 7 5 3 3 3 3 4 3 2 2 2 2 3 2 1 3 5 5 4 4 4 3 1 2 4 6 7 7 6 6 6 7 7 5 6 9 12 15 16 16 17 18 17 18 19 20 22 22 18 11 6 9 15 16 14 14 15 16 16 14 14 14 12 12 12 9 8 10 10 8 10 10 10 10 11 12 10 8 9 11 11 9 8 8 9 10
9 7 8 7 4 3 4 3 3 4 3 3 3 3 3 3 1 3 4 5 4 3 2 2 1 2 3 3 4 6 6 5 5 6 8 7 6 6 8 13 15 15 18 20 19 17 15 18 23 23 20 16 9 10 16 18 18 18 17 16 16 15 14 14 15 13 9 7 6 6 10 10 10 11 12 10 10 11 9 10 11 10 10 9 9 10 9 9
10 6 6 7 5 5 6 5 4 4 4 4 3 2 3 2 1 3 4 3 4 4 3 2 2 3 5 4 2 3 5 5 5 7 7 7 7 6 6 10 13 13 14 15 18 20 16 15 21 22 18 16 13 12 14 16 16 17 16 15 15 14 13 13 14 13 9 7 6 7 10 12 12 14 13 10 10 10 9 11 12 10 9 9 9 10 10 8
9 7 5 5 5 5 5 4 4 3 3 3 2 1 1 1 2 3 3 3 4 6 6 4 4 5 5 4 2 2 4 4 5 8 10 8 8 7 6 9 10 12 13 11 12 17 15 14 19 20 14 12 13 12 11 11 13 14 14 14 13 12 13 13 12 12 9 7 8 10 11 13 14 13 12 11 12 12 10 9 9 10 10 10 8 9 10 10
9 8 7 5 4 5 5 5 5 4 3 2 2 1 0 1 3 4 4 4 4 5 6 7 8 8 6 5 4 4 5 4 4 7 9 10 10 10 8 7 7 8 10 11 10 9 9 11 15 15 12 9 11 12 9 8 10 12 12 13 12 11 11 11 11 10 7 6 8 10 11 14 15 14 14 13 12 12 12 11 10 11 10 8 7 7 8 8
9 10 9 7 4 4 6 5 4 4 4 4 3 2 1 2 4 4 3 5 5 5 6 6 6 6 6 7 7 7 7 6 5 6 6 8 11 11 10 8 7 5 4 5 4 2 3 6 10 12 11 9 12 14 11 8 7 8 9 10 11 10 9 9 9 9 7 6 6 7 10 16 16 15 17 16 12 12 12 11 10 10 9 7 6 5 4 4
Wind_Direction
241 239 240 241 244 246 248 250 252 254 254 254 254 255 257 257 258 259 260 261 263 263 263 262 260 259 257 255 254 253 255 256 258 256 252 248 242 239 239 243 251 257 257 254 250 247 245 240 239 235 232 231 230 234 233 228 225 216 208 218 232 236 242 231 224 235 223 239 250 239 245 252 303 323 347 38 308 226 185 191 194 194 198 200 208 212 215 234
242 241 241 241 242 244 245 247 250 253 254 256 256 257 258 259 260 260 261 262 262 263 263 263 262 261 259 256 253 253 256 259 261 260 256 248 240 235 235 240 247 254 255 254 249 245 243 238 236 232 231 230 228 231 230 229 225 215 211 225 235 237 239 236 240 248 241 248 255 263 267 260 285 294 259 44 344 332 171 193 192 190 198 197 205 211 214 227
241 242 242 241 243 244 245 247 249 251 253 255 257 258 260 260 261 262 263 263 262 262 262 262 263 262 260 256 252 253 257 261 262 262 259 249 240 233 233 238 243 250 252 250 247 243 242 240 238 233 232 231 230 230 227 229 227 218 219 229 242 243 244 247 250 254 253 254 262 272 265 266 286 272 248 65 29 28 27 229 198 199 202 195 207 214 219 243
243 243 243 243 243 246 248 249 250 252 253 254 256 257 258 259 260 262 264 265 265 264 262 262 262 261 260 256 253 253 258 267 265 262 260 252 242 234 233 237 241 245 245 243 240 239 239 239 238 234 233 234 235 231 226 228 223 223 227 227 239 247 254 259 252 254 261 258 263 269 264 277 273 252 257 230 103 19 336 258 211 202 199 196 210 216 229 281
247 247 248 247 246 248 250 252 253 254 255 256 257 257 259 260 261 263 264 266 266 266 266 265 263 262 259 255 254 254 259 270 263 257 256 251 243 236 234 237 240 240 239 236 234 234 233 233 231 230 228 232 240 237 232 234 224 231 240 232 241 251 257 259 257 260 264 260 264 271 270 267 246 232 246 232 257 293 290 246 214 198 194 194 200 208 227 259
250 250 251 251 249 249 251 253 255 255 256 257 258 259 261 262 263 265 266 267 267 267 267 267 265 262 259 254 252 252 247 242 249 248 247 245 240 234 232 234 236 236 235 232 231 232 232 232 231 230 228 232 242 237 237 243 234 239 253 248 250 257 256 256 262 265 265 264 262 265 263 249 230 230 230 205 279 267 245 229 219 203 193 188 187 195 214 180
250 250 250 249 248 246 247 250 252 255 257 258 259 259 261 263 264 265 266 267 266 265 265 265 264 261 259 254 249 249 244 241 244 242 240 240 235 231 228 229 231 231 231 229 229 230 230 231 228 228 227 232 239 233 236 244 237 232 238 246 252 258 260 260 261 261 263 262 259 259 253 243 245 244 213 190 267 245 219 224 220 209 193 182 180 174 160 121
246 245 245 245 245 244 245 247 251 254 256 258 259 259 260 262 263 264 266 267 266 266 263 261 260 257 257 254 250 250 250 248 247 244 242 241 238 234 228 228 228 229 229 227 229 227 228 229 225 226 221 226 236 234 237 239 239 233 228 243 252 251 258 261 256 251 253 255 257 257 246 248 261 236 201 198 245 239 224 225 216 211 200 185 173 150 131 108
241 240 240 243 245 247 248 249 252 256 257 258 259 259 260 259 261 263 265 268 269 268 266 263 260 256 254 251 249 253 253 249 247 246 243 241 240 239 235 231 228 228 228 226 229 226 226 225 221 221 214 223 232 232 235 227 239 244 233 241 246 245 253 257 254 246 249 252 253 253 241 259 267 226 207 220 227 241 231 217 221 216 205 190 163 140 128 116
240 239 240 243 246 249 251 252 254 255 257 257 258 259 259 259 260 261 264 267 269 271 271 268 264 257 254 249 245 250 252 247 246 245 242 240 240 240 238 236 232 230 229 228 230 230 229 226 224 224 218 224 226 228 232 214 223 242 234 238 241 242 247 252 256 251 253 254 252 250 238 258 256 212 219 234 218 235 232 216 232 212 197 184 150 138 132 127
241 242 243 245 248 251 253 254 255 255 256 256 257 258 258 259 259 260 263 264 266 269 269 270 267 260 256 251 248 251 249 243 243 240 238 237 236 239 238 236 233 228 228 229 230 234 236 235 236 230 221 227 224 227 236 224 226 239 237 244 248 248 251 255 261 262 263 263 263 260 249 259 245 209 218 227 211 225 225 221 226 194 179 173 150 142 139 136
244 246 248 249 251 253 255 256 257 257 257 257 257 258 258 258 259 260 261 262 264 264 264 265 264 261 257 254 255 254 248 242 242 238 234 233 232 234 235 234 232 227 227 228 229 232 233 237 238 229 223 227 220 225 241 236 234 241 242 249 260 263 263 263 267 270 272 268 265 264 258 256 239 220 224 221 212 216 214 211 209 192 177 170 163 157 148 145
248 251 251 253 255 256 257 258 259 259 259 259 259 259 259 259 260 260 261 262 261 261 261 260 260 261 256 256 260 256 249 245 243 242 237 231 229 228 229 231 231 228 227 226 227 227 226 228 227 227 228 216 208 223 236 239 235 238 247 246 254 267 258 254 266 277 281 268 255 249 249 245 223 217 227 222 215 209 202 197 195 191 180 167 165 168 160 152
250 252 252 254 256 257 258 258 259 260 260 261 260 261 261 260 261 261 261 261 260 259 259 258 258 259 254 257 263 257 250 247 243 244 241 234 231 229 228 228 226 225 226 226 224 222 221 222 221 228 229 214 215 230 231 242 239 225 248 247 242 252 228 228 255 269 286 274 252 220 234 234 194 202 222 222 217 208 200 194 187 178 170 163 160 166 167 159
249 249 250 252 254 255 257 258 259 260 261 261 261 262 262 262 263 263 262 262 260 260 260 259 258 259 258 257 261 258 251 250 245 243 244 240 235 231 228 223 219 220 223 226 223 221 219 217 220 224 227 226 228 229 219 233 238 218 238 242 226 234 216 219 248 210 190 261 244 196 229 233 207 214 225 221 221 214 208 202 187 174 168 166 162 167 175 173
247 247 249 251 253 256 257 259 261 262 264 264 264 265 265 266 266 266 265 264 263 262 261 261 259 259 259 257 260 257 249 249 249 245 242 240 236 233 227 218 215 219 223 227 225 223 220 215 217 217 221 227 224 216 213 226 230 223 233 237 218 229 226 218 241 225 205 228 238 216 231 232 213 224 227 222 225 221 216 212 198 185 176 171 169 174 184 185
246 248 250 252 256 258 260 263 265 267 268 269 269 269 269 269 269 268 267 267 265 264 262 261 259 259 258 257 257 253 245 243 244 244 240 236 235 233 227 219 215 217 221 225 226 224 221 219 218 220 222 218 211 208 217 227 226 219 221 233 233 231 238 227 219 227 218 221 237 231 236 237 225 232 231 222 225 226 219 217 209 195 183 179 179 181 188 192
249 251 254 256 258 260 263 265 267 269 271 272 273 272 272 272 271 271 270 268 266 265 265 262 257 257 258 254 250 248 245 241 240 243 244 238 233 231 227 221 215 216 223 226 227 224 220 221 215 216 220 214 210 208 213 228 232 218 213 228 238 233 239 237 215 228 239 236 242 240 239 241 237 238 235 224 220 226 222 218 216 204 192 188 188 188 189 194
254 257 259 260 261 262 264 265 268 271 272 274 275 276 276 275 274 273 270 269 267 265 264 260 251 246 243 241 241 243 242 241 242 243 246 242 234 230 224 221 217 215 222 226 228 224 215 214 208 205 213 217 219 215 216 235 239 211 212 228 240 240 238 230 223 237 251 251 251 247 243 242 237 229 235 234 225 227 231 225 220 213 205 197 192 192 190 193
259 261 262 263 262 264 265 267 270 272 274 276 278 279 278 276 276 275 271 270 268 260 254 253 249 239 235 235 231 230 231 229 229 231 238 240 235 228 220 217 215 211 214 218 224 224 214 210 211 211 217 223 227 221 217 228 228 216 227 242 245 249 249 235 231 245 257 259 256 248 244 243 238 230 237 240 229 229 233 230 224 220 218 209 201 199 194 194
263 263 265 265 265 266 267 269 271 273 276 277 278 278 275 274 275 276 276 273 267 261 254 251 249 242 239 241 235 228 229 223 220 227 233 238 236 227 220 215 210 209 210 205 213 224 216 213 219 220 223 223 222 222 222 227 234 236 241 249 250 250 252 242 240 252 261 263 259 251 247 245 241 235 240 240 231 228 230 230 228 224 226 221 212 207 202 198
266 266 267 267 268 268 268 270 272 273 274 275 275 273 271 273 272 274 279 275 267 265 262 257 252 246 243 244 238 231 233 231 230 234 233 235 234 222 219 214 207 208 207 198 205 219 218 223 225 222 225 224 223 229 231 232 237 240 239 246 250 250 253 251 251 256 259 263 259 252 249 247 242 236 241 241 233 231 230 230 230 228 228 225 219 215 210 206
268 267 266 268 268 269 270 270 269 271 271 271 271 268 270 274 272 275 280 277 274 268 261 259 255 250 247 244 238 232 233 233 231 234 233 233 230 219 216 212 205 204 206 207 210 212 218 230 225 222 230 230 231 235 231 228 233 234 234 240 245 245 250 252 244 243 258 260 253 254 258 253 245 240 243 242 234 234 235 234 233 233 231 226 224 221 216 215
268 267 266 267 268 269 269 266 265 267 268 269 269 267 267 269 272 279 278 278 283 273 249 248 242 242 244 243 240 236 235 234 229 228 231 229 224 220 217 213 206 205 210 216 218 218 223 234 221 226 238 233 227 231 224 224 234 236 237 239 243 245 248 255 255 263 275 267 250 252 260 252 244 240 240 239 236 236 238 238 237 237 235 232 231 225 219 217
267 266 265 266 268 268 263 260 261 262 263 267 268 264 260 261 270 276 276 282 288 269 211 212 212 222 234 241 245 242 240 239 229 224 228 224 219 219 216 211 207 209 217 217 220 224 231 243 237 235 242 228 218 226 224 226 237 243 242 241 245 250 255 262 261 262 268 259 240 232 246 249 237 232 233 234 237 237 238 239 239 238 237 236 236 229 222 220
265 263 264 265 265 261 254 253 254 255 259 263 261 257 252 252 260 266 279 286 268 222 186 192 199 210 230 255 255 246 249 245 228 220 224 221 215 213 208 208 209 212 218 215 220 228 228 241 243 234 229 219 216 227 227 226 236 244 246 245 252 253 252 255 247 239 248 250 222 210 236 256 236 228 230 228 232 237 239 239 237 236 234 232 232 228 224 223
263 262 262 260 255 250 247 245 243 245 246 249 252 248 240 240 241 239 277 267 227 211 198 193 194 199 237 295 256 218 228 233 222 217 217 214 210 207 204 208 211 212 211 206 215 229 227 234 235 220 213 213 215 225 227 224 228 241 248 247 255 249 240 239 230 226 237 251 225 209 231 259 254 242 231 227 231 237 244 243 238 235 231 226 224 223 221 222
260 261 257 247 242 240 239 235 229 228 233 235 231 224 225 222 204 141 169 240 205 198 199 194 193 190 229 320 265 206 202 199 207 215 212 207 204 207 209 210 212 215 214 209 213 231 238 241 240 226 217 220 221 222 225 221 222 240 251 241 240 239 231 224 219 223 230 247 240 222 220 246 256 243 227 235 236 231 247 252 246 240 234 227 222 220 218 219
257 255 243 234 232 228 228 225 214 214 223 223 208 211 211 185 161 135 194 248 208 186 192 184 187 191 195 345 306 228 206 187 181 211 209 203 202 205 208 209 212 219 222 221 221 236 246 244 242 229 222 227 230 227 226 221 222 236 242 236 234 229 219 211 213 220 220 235 244 225 212 230 255 240 222 226 221 214 241 257 255 246 237 229 222 217 216 217
250 236 229 226 220 215 218 218 208 206 215 215 203 207 201 164 155 177 214 221 181 181 201 194 196 204 328 353 311 246 219 200 196 205 203 200 203 207 208 208 210 213 218 219 222 236 247 244 234 218 216 224 231 230 226 223 224 231 230 225 226 213 203 205 214 220 218 231 240 223 208 230 255 242 216 211 217 226 231 235 256 250 233 220 214 211 213 215
233 222 222 218 210 209 213 218 215 209 211 210 200 200 189 164 181 220 220 194 186 196 202 204 214 215 268 344 285 257 256 219 207 197 192 193 198 205 207 204 202 204 209 214 220 231 239 241 231 213 210 211 218 224 220 217 217 220 222 218 208 196 195 205 207 211 228 237 228 212 209 232 244 234 233 251 251 249 226 211 229 227 219 213 209 209 212 214
218 214 215 213 210 213 219 225 225 218 212 207 203 192 175 177 210 223 214 188 212 215 191 199 215 217 247 315 281 277 285 230 213 199 189 191 194 201 204 200 194 196 203 208 212 220 227 229 224 218 215 204 201 208 206 206 208 211 216 217 214 199 191 209 206 207 233 227 180 180 207 232 239 231 243 260 269 270 248 229 219 211 227 225 214 213 214 216
209 207 211 218 219 222 229 230 228 222 209 203 201 183 173 202 228 214 208 202 211 200 194 218 242 245 258 268 267 280 279 231 214 199 190 193 197 203 207 205 201 201 207 206 204 211 218 221 219 219 222 211 201 200 195 197 206 210 210 211 218 214 196 216 217 214 231 219 173 183 217 234 231 222 236 248 260 274 267 233 216 220 235 231 217 218 219 219
202 205 215 224 227 230 233 231 227 217 206 202 193 176 181 216 228 200 207 229 239 242 254 268 272 279 280 252 254 272 238 232 218 198 192 196 200 205 207 209 208 208 212 208 207 214 216 217 214 213 219 213 207 207 201 200 208 210 212 217 225 229 223 225 230 230 232 210 170 179 212 236 224 210 230 237 245 268 280 258 226 226 237 232 220 220 221 221
201 210 221 226 229 229 227 228 224 210 202 195 185 183 198 220 221 201 220 242 251 262 279 283 285 288 276 236 244 268 218 222 215 196 196 200 204 207 209 211 208 206 208 205 206 214 221 228 218 209 213 210 210 212 209 212 216 207 209 222 228 229 229 236 263 272 265 237 182 184 213 246 236 221 226 223 222 250 273 272 229 215 222 220 216 216 216 216
205 215 221 224 222 215 209 212 207 200 194 183 184 198 215 221 212 214 236 252 266 284 296 294 289 276 257 221 221 262 256 229 211 201 202 206 212 214 212 212 209 206 207 205 201 201 214 225 215 214 217 208 207 211 208 212 215 201 205 218 223 224 229 236 242 243 266 267 212 199 224 219 203 226 232 219 207 229 263 276 252 204 212 200 198 201 203 207
209 215 216 219 211 193 186 186 186 190 184 178 190 211 225 229 233 241 254 267 275 291 309 305 276 262 268 226 203 230 279 235 211 210 206 204 213 216 210 209 210 209 207 208 210 208 216 221 207 215 218 202 197 200 205 213 215 203 209 217 215 217 227 233 231 209 224 244 216 209 231 213 193 217 227 211 195 206 239 263 262 225 253 236 209 207 210 209
208 208 211 213 201 185 172 172 176 181 182 187 206 222 229 237 246 252 260 269 275 287 299 285 272 271 272 244 224 262 275 231 218 221 213 206 212 211 203 206 213 209 206 211 219 217 222 226 205 196 204 199 196 197 204 212 215 212 216 220 212 212 216 216 223 224 220 235 225 209 226 222 209 215 202 181 192 204 220 244 253 241 245 235 207 209 223 214
201 194 207 209 196 185 169 168 174 174 188 201 215 229 235 242 252 257 263 268 272 278 276 264 264 266 263 266 281 295 267 247 246 231 218 215 220 216 200 201 212 210 205 209 217 217 220 227 212 187 196 200 196 202 208 207 210 214 219 224 217 216 220 213 217 228 230 236 227 209 219 206 171 187 181 162 181 209 213 223 237 235 233 229 209 205 217 204
189 179 209 210 192 187 177 174 179 177 203 217 220 231 238 246 256 262 265 264 263 262 256 255 256 262 275 279 282 281 267 278 272 241 225 216 214 217 204 196 201 210 210 209 214 218 215 222 219 190 195 203 195 203 210 203 205 211 216 221 214 210 221 224 221 229 242 249 230 223 219 135 164 204 200 178 181 205 218 213 221 226 224 228 225 218 212 188
178 173 215 209 190 192 187 190 207 199 214 229 234 241 242 247 256 261 265 265 263 257 249 248 245 248 266 273 272 278 278 281 270 243 231 217 207 210 207 201 201 208 213 211 213 217 212 217 220 202 199 204 197 202 209 208 210 213 217 220 215 211 214 219 218 218 232 248 250 251 216 111 204 226 211 210 203 203 219 215 213 222 224 224 219 206 192 184
173 183 217 204 192 201 193 214 234 216 217 230 238 248 247 250 254 256 262 264 261 259 254 251 243 242 253 260 262 278 284 277 265 244 230 222 217 212 201 198 197 195 201 205 212 217 212 214 220 215 211 204 197 205 209 211 215 218 222 219 217 220 216 225 233 206 214 232 240 254 245 139 235 240 210 215 208 196 211 210 208 214 213 208 199 189 188 195
169 196 215 199 194 204 186 218 245 227 228 236 240 248 250 253 255 251 253 253 250 251 253 252 246 240 243 245 249 272 281 267 261 249 233 226 228 221 210 204 202 200 201 204 214 218 213 213 220 219 217 216 219 222 226 233 222 215 219 218 219 222 216 226 243 217 217 225 222 238 226 165 224 240 223 219 206 190 193 194 203 206 200 198 194 195 210 216
171 193 205 197 194 194 176 195 221 216 227 238 244 246 249 254 250 234 230 231 228 230 237 244 244 234 232 237 245 266 273 256 250 257 239 227 240 228 217 212 213 216 219 210 208 216 214 214 218 214 210 210 218 224 227 234 227 211 218 221 220 222 218 223 231 230 233 224 216 237 216 144 206 230 230 225 206 191 185 183 195 196 193 199 200 209 235 247
180 188 197 201 196 191 197 200 201 205 217 228 238 225 224 244 230 210 207 211 212 212 219 245 246 233 232 244 253 261 267 249 237 257 258 220 246 231 214 211 212 215 221 219 214 218 217 215 217 219 219 209 210 215 212 211 210 211 224 228 222 221 220 222 224 230 235 218 213 232 193 136 187 219 231 228 206 193 193 189 194 193 194 205 209 222 239 245
177 187 198 204 199 199 210 203 183 183 205 207 202 147 135 159 217 205 187 187 202 207 210 235 250 238 237 249 253 253 266 258 244 247 253 236 250 236 217 212 210 210 215 217 215 217 218 216 218 225 239 237 218 212 202 196 198 206 220 227 225 224 223 221 220 230 238 228 216 227 219 171 178 194 213 219 209 207 207 199 193 187 191 204 210 222 232 234
171 196 201 193 193 191 190 188 169 164 175 165 141 123 123 118 173 199 178 176 192 200 207 226 249 245 241 249 252 249 256 263 252 244 247 249 256 247 229 223 221 215 211 207 206 210 213 218 222 227 239 249 238 207 196 193 194 199 210 217 219 223 222 214 213 222 230 231 220 214 208 180 163 181 209 213 208 211 208 201 199 192 190 196 204 219 231 233
177 206 203 184 185 185 179 190 180 166 159 143 120 100 99 90 117 184 187 193 196 180 191 239 287 297 267 260 263 259 254 253 247 244 247 248 251 256 245 233 228 220 211 205 203 204 207 217 220 223 232 234 222 202 197 196 198 200 205 209 209 215 215 210 214 217 214 223 224 184 178 176 173 195 218 215 205 208 200 199 213 214 204 200 205 212 219 226
186 199 190 176 183 188 186 189 176 165 163 140 107 90 107 96 121 176 180 196 216 223 224 252 311 286 273 275 283 280 261 243 235 241 248 259 263 265 257 243 239 234 220 205 203 207 210 214 213 212 219 221 207 193 191 194 197 196 197 201 204 208 213 214 218 221 216 213 204 182 191 206 209 215 225 219 200 196 197 206 217 219 207 203 202 197 197 205
188 187 167 158 174 181 181 179 156 156 166 135 99 55 116 153 217 205 198 200 222 243 245 252 272 269 272 282 279 282 271 253 253 251 249 264 278 277 267 257 261 266 258 244 225 215 212 216 213 208 211 217 209 197 186 186 197 199 198 202 204 207 213 217 218 218 217 208 205 211 216 219 218 215 216 216 202 192 190 197 198 190 191 201 202 193 194 200
182 179 156 141 158 158 160 174 160 152 170 158 153 228 250 219 224 215 226 230 227 246 252 251 257 263 275 284 268 268 272 269 281 270 252 253 260 266 271 265 267 278 265 254 255 242 219 216 211 204 204 212 211 202 179 162 186 200 200 198 200 201 205 212 216 212 206 206 216 221 216 214 216 208 200 205 205 194 190 191 190 186 191 205 214 211 205 200
171 167 152 142 147 138 143 166 160 155 198 207 194 226 250 237 232 223 240 255 248 252 259 258 258 263 273 274 262 264 271 270 282 289 274 260 255 255 259 256 253 266 244 216 229 253 234 210 196 194 196 195 203 202 185 170 181 191 191 189 187 187 187 190 201 204 201 201 204 213 219 218 212 198 196 200 193 183 187 190 186 183 184 191 198 203 201 200
Height
3105 3105 3105 3106 3106 3107 3107 3108 3108 3108 3109 3109 3110 3110 3110 3111 3111 3111 3112 3113 3113 3114 3114 3115 3115 3115 3116 3117 3117 3117 3117 3117 3118 3118 3118 3118 3119 3120 3121 3121 3121 3122 3123 3123 3124 3125 3126 3127 3128 3128 3129 3130 3131 3132 3133 3134 3135 3136 3138 3139 3139 3139 3139 3138 3138 3138 3138 3139 3138 3138 3138 3139 3140 3140 3139 3139 3140 3139 3139 3138 3138 3139 3139 3139 3139 3138 3139 3138
3103 3103 3104 3104 3105 3105 3106 3106 3106 3107 3107 3108 3108 3108 3109 3109 3109 3110 3110 3111 3112 3112 3113 3113 3113 3114 3115 3115 3116 3116 3116 3116 3116 3116 3116 3117 3117 3118 3119 3119 3120 3121 3122 3122 3123 3124 3124 3125 3126 3127 3128 3129 3130 3131 3131 3133 3133 3135 3137 3137 3137 3138 3136 3135 3136 3136 3137 3138 3137 3137 3138 3138 3139 3139 3139 3139 3140 3140 3139 3139 3138 3138 3137 3137 3137 3137 3137 3137
3102 3102 3102 3102 3103 3103 3104 3104 3104 3105 3105 3106 3106 3107 3107 3107 3108 3108 3108 3109 3110 3110 3111 3111 3112 3112 3113 3114 3114 3114 3114 3114 3115 3115 3115 3115 3116 3116 3117 3118 3118 3119 3120 3121 3122 3122 3123 3124 3125 3126 3127 3128 3129 3129 3130 3131 3132 3134 3135 3136 3136 3135 3134 3134 3135 3134 3135 3136 3136 3136 3137 3138 3138 3138 3138 3138 3139 3140 3140 3139 3137 3137 3136 3136 3136 3136 3137 3138
3100 3100 3100 3100 3101 3101 3102 3102 3103 3103 3103 3104 3104 3105 3105 3106 3106 3106 3107 3107 3108 3109 3109 3110 3110 3111 3112 3112 3113 3113 3113 3113 3113 3113 3113 3113 3114 3115 3116 3116 3117 3118 3119 3120 3120 3121 3122 3123 3124 3125 3126 3127 3127 3128 3129 3130 3131 3132 3132 3134 3134 3133 3133 3133 3133 3133 3133 3134 3135 3135 3136 3137 3138 3137 3138 3138 3138 3140 3139 3136 3135 3135 3134 3134 3135 3136 3138 3139
3099 3099 3099 3099 3099 3099 3100 3100 3101 3101 3102 3102 3102 3103 3103 3104 3104 3105 3105 3106 3106 3107 3107 3108 3109 3109 3110 3111 3111 3111 3112 3112 3111 3111 3112 3112 3112 3113 3114 3115 3116 3117 3117 3118 3119 3120 3121 3122 3123 3124 3125 3126 3126 3127 3128 3128 3130 3131 3130 3132 3132 3131 3133 3132 3131 3132 3132 3133 3134 3134 3135 3136 3136 3136 3137 3137 3137 3138 3137 3134 3134 3133 3133 3135 3136 3137 3138 3139
3097 3097 3097 3097 3097 3097 3098 3098 3099 3099 3100 3100 3101 3101 3101 3102 3103 3103 3103 3104 3104 3105 3106 3106 3107 3108 3108 3109 3109 3110 3111 3111 3110 3110 3110 3110 3111 3112 3113 3114 3114 3115 3116 3117 3118 3119 3119 3120 3122 3123 3124 3125 3125 3126 3127 3127 3129 3129 3130 3130 3130 3130 3131 3130 3130 3131 3131 3132 3132 3132 3133 3134 3135 3135 3136 3136 3136 3135 3134 3134 3133 3133 3134 3135 3136 3137 3138 3139
3095 3095 3096 3096 3096 3096 3096 3096 3097 3098 3098 3099 3099 3099 3100 3100 3101 3101 3102 3102 3103 3104 3104 3105 3105 3106 3107 3107 3108 3108 3109 3109 3109 3109 3109 3109 3110 3110 3111 3112 3113 3114 3115 3116 3116 3117 3118 3119 3120 3122 3123 3124 3124 3125 3125 3126 3127 3128 3129 3129 3128 3129 3129 3128 3129 3130 3130 3130 3130 3131 3132 3133 3133 3134 3134 3135 3134 3134 3133 3133 3133 3133 3135 3135 3136 3136 3137 3138
3093 3094 3094 3094 3094 3094 3094 3095 3096 3096 3097 3097 3098 3098 3098 3099 3099 3100 3100 3101 3101 3102 3103 3103 3104 3104 3105 3106 3106 3107 3107 3107 3107 3108 3108 3108 3108 3109 3110 3111 3112 3113 3113 3114 3115 3116 3117 3118 3119 3120 3122 3123 3123 3124 3124 3125 3126 3126 3127 3127 3127 3127 3127 3127 3127 3128 3128 3128 3129 3130 3131 3131 3132 3132 3133 3133 3133 3133 3133 3133 3133 3133 3135 3135 3136 3136 3136 3137
3091 3091 3092 3092 3093 3093 3093 3093 3094 3095 3095 3096 3096 3097 3097 3097 3098 3098 3099 3099 3100 3101 3101 3102 3102 3103 3103 3104 3105 3105 3105 3105 3106 3106 3107 3107 3107 3108 3108 3109 3110 3111 3112 3113 3113 3114 3115 3116 3118 3119 3121 3121 3121 3122 3123 3125 3126 3125 3125 3126 3125 3125 3125 3125 3125 3126 3127 3127 3127 3128 3129 3130 3130 3131 3132 3132 3132 3132 3132 3132 3133 3133 3134 3135 3135 3135 3136 3136
3089 3089 3090 3091 3091 3091 3092 3092 3092 3093 3093 3094 3094 3095 3095 3096 3097 3097 3097 3098 3099 3099 3100 3100 3101 3101 3102 3102 3103 3103 3103 3104 3104 3105 3105 3106 3106 3106 3107 3108 3109 3109 3110 3111 3112 3113 3114 3115 3116 3118 3119 3119 3120 3121 3121 3123 3124 3123 3124 3124 3123 3124 3124 3123 3123 3124 3125 3125 3126 3127 3128 3129 3129 3130 3131 3131 3130 3131 3131 3132 3133 3133 3134 3134 3135 3134 3135 3136
3087 3087 3088 3088 3089 3089 3090 3090 3090 3091 3091 3092 3092 3093 3094 3094 3095 3095 3096 3096 3097 3098 3099 3099 3099 3100 3100 3100 3101 3101 3101 3102 3103 3103 3104 3104 3104 3105 3106 3106 3107 3108 3108 3109 3111 3112 3113 3114 3115 3117 3118 3118 3119 3119 3120 3121 3122 3122 3122 3122 3122 3122 3122 3122 3122 3123 3124 3124 3125 3125 3126 3127 3127 3128 3129 3129 3129 3130 3131 3131 3132 3133 3133 3134 3134 3134 3135 3135
3085 3085 3086 3086 3087 3087 3088 3088 3088 3089 3089 3090 3090 3091 3092 3093 3093 3094 3094 3095 3096 3096 3097 3098 3098 3098 3098 3099 3099 3099 3099 3100 3100 3101 3102 3102 3103 3103 3104 3104 3105 3106 3107 3108 3109 3110 3111 3113 3114 3116 3117 3117 3118 3119 3119 3119 3120 3121 3121 3121 3122 3121 3122 3122 3122 3122 3123 3124 3124 3124 3124 3125 3126 3127 3127 3127 3128 3129 3130 3130 3132 3132 3133 3133 3133 3134 3134 3135
3083 3083 3084 3084 3085 3085 3086 3086 3086 3086 3087 3088 3088 3089 3090 3091 3091 3092 3092 3093 3094 3094 3095 3096 3096 3096 3096 3097 3097 3097 3098 3098 3098 3099 3100 3101 3101 3101 3102 3103 3103 3104 3105 3106 3107 3109 3110 3111 3113 3114 3115 3117 3118 3117 3117 3118 3119 3120 3120 3121 3122 3122 3121 3120 3120 3121 3122 3122 3122 3123 3124 3123 3124 3126 3125 3125 3126 3128 3128 3129 3130 3132 3132 3133 3133 3133 3134 3135
3080 3081 3081 3082 3083 3083 3084 3084 3084 3084 3085 3086 3087 3087 3088 3089 3089 3090 3090 3091 3092 3093 3093 3094 3094 3094 3095 3095 3095 3095 3096 3096 3097 3097 3097 3099 3099 3100 3100 3101 3102 3103 3103 3104 3106 3107 3109 3110 3111 3113 3113 3115 3116 3116 3117 3117 3118 3120 3120 3120 3121 3122 3120 3119 3119 3120 3121 3121 3120 3122 3123 3122 3124 3124 3123 3124 3125 3126 3127 3128 3129 3130 3131 3132 3133 3133 3134 3134
3078 3078 3079 3080 3080 3081 3081 3082 3082 3082 3083 3084 3085 3086 3086 3087 3087 3088 3088 3089 3090 3091 3091 3092 3093 3093 3093 3093 3093 3094 3094 3094 3095 3095 3096 3097 3098 3098 3099 3100 3101 3101 3102 3103 3104 3106 3108 3109 3110 3111 3112 3113 3114 3115 3117 3118 3118 3119 3119 3119 3119 3120 3119 3118 3119 3119 3121 3120 3119 3121 3122 3122 3123 3122 3121 3123 3124 3125 3126 3127 3128 3129 3130 3131 3132 3132 3133 3134
3076 3076 3077 3078 3078 3079 3079 3080 3080 3080 3081 3082 3083 3084 3084 3085 3085 3086 3086 3087 3087 3088 3089 3090 3090 3091 3091 3091 3091 3092 3092 3092 3093 3094 3094 3095 3096 3096 3097 3098 3099 3099 3100 3101 3103 3105 3106 3107 3108 3110 3111 3112 3113 3115 3117 3118 3117 3117 3118 3118 3118 3118 3118 3118 3118 3118 3119 3119 3120 3121 3121 3121 3122 3121 3120 3122 3122 3124 3125 3125 3126 3128 3129 3130 3131 3131 3132 3133
3074 3074 3075 3076 3076 3077 3077 3077 3078 3078 3079 3080 3081 3081 3082 3082 3083 3083 3083 3084 3085 3086 3086 3087 3088 3088 3088 3088 3089 3089 3090 3090 3090 3091 3092 3093 3094 3095 3096 3097 3097 3098 3099 3100 3102 3103 3105 3106 3107 3108 3109 3111 3113 3115 3116 3115 3115 3115 3116 3116 3117 3117 3118 3117 3117 3117 3117 3119 3119 3120 3120 3120 3121 3120 3120 3120 3121 3122 3123 3124 3124 3124 3127 3129 3129 3130 3131 3132
3072 3072 3073 3073 3074 3075 3075 3075 3075 3076 3076 3077 3078 3079 3079 3080 3080 3080 3081 3081 3082 3083 3084 3084 3085 3086 3086 3086 3086 3086 3087 3088 3088 3089 3090 3091 3092 3093 3094 3096 3096 3097 3098 3099 3100 3102 3103 3104 3106 3108 3108 3109 3110 3112 3113 3112 3111 3113 3114 3115 3115 3115 3116 3116 3117 3116 3117 3118 3118 3118 3119 3119 3119 3120 3119 3118 3119 3120 3121 3122 3122 3122 3124 3127 3128 3129 3129 3130
3070 3070 3071 3071 3072 3072 3073 3073 3073 3073 3074 3075 3076 3076 3077 3077 3077 3077 3078 3078 3079 3080 3081 3081 3082 3083 3084 3083 3083 3083 3084 3086 3087 3087 3088 3089 3091 3092 3093 3094 3095 3097 3098 3099 3099 3100 3102 3103 3104 3106 3106 3106 3107 3108 3110 3110 3110 3111 3112 3113 3114 3114 3114 3115 3115 3115 3115 3116 3117 3117 3117 3117 3118 3119 3117 3116 3118 3119 3120 3121 3121 3122 3123 3125 3126 3127 3128 3129
3068 3068 3069 3069 3070 3070 3071 3071 3071 3071 3071 3072 3073 3074 3074 3074 3074 3074 3075 3076 3076 3077 3077 3077 3078 3080 3080 3079 3080 3082 3082 3083 3084 3085 3086 3087 3089 3090 3092 3093 3094 3096 3097 3099 3099 3098 3100 3102 3102 3103 3104 3105 3105 3106 3108 3109 3108 3110 3111 3112 3113 3113 3113 3113 3113 3114 3114 3114 3114 3115 3115 3115 3116 3117 3115 3114 3116 3117 3118 3119 3120 3122 3122 3123 3124 3125 3126 3127
3066 3066 3067 3067 3068 3068 3069 3069 3068 3069 3069 3070 3071 3072 3072 3072 3072 3072 3072 3073 3073 3073 3074 3074 3075 3077 3077 3076 3079 3081 3081 3082 3083 3084 3084 3085 3087 3089 3090 3091 3093 3094 3096 3098 3098 3097 3099 3100 3100 3101 3103 3104 3104 3104 3106 3106 3107 3108 3110 3111 3111 3111 3112 3111 3111 3112 3112 3112 3112 3113 3113 3113 3113 3115 3114 3113 3114 3115 3116 3117 3118 3120 3121 3122 3123 3123 3124 3124
3064 3064 3065 3065 3065 3066 3066 3066 3066 3066 3067 3068 3069 3069 3069 3069 3070 3070 3070 3071 3071 3070 3070 3071 3072 3074 3074 3074 3076 3078 3077 3079 3080 3081 3082 3084 3085 3087 3089 3089 3091 3093 3094 3095 3095 3096 3097 3097 3098 3100 3100 3100 3101 3102 3103 3105 3106 3107 3109 3110 3109 3109 3110 3109 3109 3110 3110 3110 3111 3111 3111 3111 3111 3112 3112 3111 3111 3112 3113 3115 3116 3117 3119 3120 3121 3122 3122 3122
3062 3062 3062 3063 3063 3064 3064 3064 3064 3064 3065 3066 3067 3067 3067 3067 3068 3068 3068 3068 3068 3068 3068 3069 3070 3071 3071 3071 3073 3074 3074 3076 3078 3079 3080 3082 3084 3086 3087 3088 3090 3092 3092 3092 3094 3096 3096 3095 3097 3098 3097 3098 3099 3100 3102 3103 3105 3106 3107 3108 3107 3108 3108 3108 3108 3108 3108 3108 3109 3109 3108 3108 3108 3109 3109 3108 3109 3110 3111 3112 3114 3115 3116 3117 3119 3120 3121 3121
3060 3060 3060 3060 3061 3062 3062 3062 3062 3063 3063 3064 3064 3065 3065 3065 3065 3066 3066 3066 3066 3066 3066 3067 3068 3068 3068 3069 3070 3071 3072 3073 3075 3077 3077 3079 3082 3083 3085 3086 3089 3091 3090 3091 3093 3094 3095 3094 3095 3095 3095 3097 3099 3099 3101 3103 3103 3104 3104 3105 3106 3106 3107 3107 3108 3107 3107 3106 3106 3107 3107 3105 3105 3105 3105 3106 3106 3107 3109 3110 3111 3112 3113 3115 3116 3118 3118 3118
3058 3058 3058 3058 3059 3060 3060 3060 3060 3061 3061 3062 3062 3063 3063 3063 3064 3065 3065 3065 3065 3065 3065 3066 3066 3067 3067 3067 3068 3068 3070 3070 3073 3074 3073 3076 3080 3081 3083 3085 3087 3089 3089 3090 3092 3093 3094 3092 3092 3094 3094 3096 3098 3098 3100 3101 3102 3102 3102 3102 3103 3104 3105 3106 3107 3107 3106 3104 3103 3105 3103 3099 3100 3101 3103 3104 3104 3105 3106 3107 3108 3109 3111 3113 3114 3115 3116 3116
3055 3056 3056 3057 3057 3058 3058 3058 3059 3059 3059 3060 3061 3061 3062 3062 3062 3063 3064 3064 3065 3064 3065 3065 3065 3066 3065 3066 3066 3067 3068 3068 3069 3070 3071 3074 3077 3080 3083 3084 3084 3087 3088 3090 3090 3091 3091 3090 3090 3093 3093 3095 3096 3097 3098 3100 3101 3101 3100 3100 3101 3102 3103 3104 3105 3105 3104 3101 3100 3102 3101 3096 3096 3099 3100 3101 3102 3103 3103 3103 3104 3105 3107 3109 3111 3112 3113 3113
3053 3054 3055 3055 3056 3056 3056 3057 3057 3057 3057 3058 3059 3060 3060 3061 3062 3063 3063 3064 3063 3063 3063 3064 3064 3064 3064 3065 3065 3066 3067 3066 3066 3067 3068 3071 3075 3077 3080 3082 3082 3084 3086 3088 3088 3088 3088 3088 3089 3091 3092 3094 3095 3096 3097 3098 3099 3099 3099 3099 3100 3100 3101 3102 3103 3102 3101 3100 3099 3100 3100 3097 3095 3096 3098 3099 3100 3100 3099 3099 3099 3100 3102 3104 3106 3108 3109 3110
3052 3052 3053 3054 3054 3054 3055 3055 3055 3056 3056 3057 3057 3058 3059 3060 3061 3062 3063 3063 3061 3061 3062 3063 3063 3063 3064 3064 3063 3064 3064 3065 3065 3066 3066 3069 3072 3074 3077 3080 3081 3083 3083 3084 3086 3085 3085 3086 3087 3089 3091 3092 3093 3094 3095 3096 3097 3098 3097 3097 3098 3098 3099 3100 3100 3100 3099 3099 3097 3097 3099 3096 3092 3093 3095 3096 3097 3097 3095 3094 3095 3096 3097 3099 3102 3104 3105 3107
3050 3051 3052 3052 3052 3053 3053 3053 3054 3054 3055 3056 3056 3057 3058 3059 3060 3061 3063 3063 3060 3060 3061 3061 3062 3063 3063 3063 3062 3062 3063 3063 3064 3064 3064 3066 3069 3072 3075 3078 3080 3082 3082 3083 3084 3084 3083 3085 3086 3087 3089 3090 3091 3093 3094 3095 3096 3096 3096 3096 3096 3097 3097 3098 3098 3098 3098 3098 3094 3093 3096 3094 3089 3089 3092 3093 3095 3094 3093 3091 3091 3091 3092 3095 3098 3100 3102 3104
3049 3050 3050 3051 3051 3051 3052 3052 3053 3053 3054 3055 3056 3057 3058 3059 3060 3061 3063 3061 3059 3060 3060 3061 3062 3062 3062 3063 3062 3062 3062 3062 3062 3062 3063 3065 3067 3070 3073 3075 3079 3081 3081 3081 3083 3082 3082 3083 3085 3086 3087 3088 3090 3091 3092 3093 3094 3095 3095 3095 3096 3096 3096 3097 3097 3097 3096 3094 3091 3091 3093 3093 3088 3087 3089 3091 3092 3091 3091 3090 3089 3089 3090 3091 3093 3096 3099 3101
3048 3048 3049 3049 3050 3050 3050 3051 3052 3052 3053 3054 3055 3056 3057 3059 3060 3061 3060 3058 3058 3059 3060 3060 3061 3061 3062 3062 3062 3062 3061 3061 3061 3061 3062 3064 3066 3069 3072 3074 3076 3079 3079 3080 3081 3081 3081 3082 3083 3084 3085 3086 3088 3089 3090 3091 3092 3093 3094 3094 3094 3094 3095 3095 3094 3095 3093 3089 3088 3089 3092 3092 3089 3087 3088 3089 3089 3088 3089 3089 3088 3088 3088 3089 3090 3093 3096 3098
3046 3047 3048 3048 3048 3049 3049 3050 3050 3051 3052 3053 3054 3056 3057 3059 3060 3059 3058 3057 3058 3059 3059 3059 3059 3060 3060 3061 3061 3061 3060 3060 3060 3061 3062 3063 3065 3066 3069 3071 3072 3074 3075 3076 3078 3079 3079 3080 3081 3083 3083 3084 3086 3087 3088 3089 3091 3092 3092 3092 3091 3089 3092 3092 3090 3090 3089 3086 3087 3089 3091 3090 3087 3086 3088 3087 3087 3087 3087 3087 3087 3088 3087 3087 3089 3091 3094 3096
3045 3046 3046 3047 3047 3048 3048 3049 3049 3050 3051 3052 3054 3055 3057 3059 3057 3056 3057 3057 3057 3057 3057 3057 3058 3058 3059 3060 3060 3059 3059 3059 3059 3060 3062 3063 3065 3066 3067 3069 3070 3071 3071 3073 3075 3076 3077 3078 3080 3081 3081 3081 3083 3084 3086 3087 3088 3089 3089 3089 3087 3085 3088 3089 3086 3085 3084 3083 3086 3089 3089 3088 3085 3085 3086 3086 3085 3085 3085 3086 3086 3087 3086 3087 3089 3090 3092 3095
3044 3045 3045 3046 3046 3047 3047 3048 3048 3049 3050 3051 3053 3055 3057 3057 3055 3055 3056 3057 3056 3056 3056 3056 3056 3057 3058 3059 3059 3058 3058 3058 3057 3059 3061 3063 3064 3065 3066 3067 3068 3069 3070 3072 3073 3073 3074 3074 3075 3077 3078 3078 3079 3081 3083 3084 3086 3086 3087 3087 3085 3083 3085 3085 3082 3081 3081 3082 3086 3088 3087 3084 3082 3083 3084 3084 3084 3084 3084 3085 3085 3086 3086 3087 3088 3090 3092 3094
3043 3044 3044 3045 3045 3046 3046 3047 3047 3048 3049 3050 3052 3054 3055 3055 3054 3055 3055 3055 3055 3055 3055 3055 3055 3057 3057 3057 3057 3057 3057 3057 3057 3058 3060 3061 3062 3062 3063 3063 3064 3067 3069 3069 3070 3071 3071 3071 3072 3074 3075 3076 3077 3079 3081 3083 3083 3084 3085 3085 3083 3082 3083 3082 3081 3081 3081 3082 3083 3085 3084 3081 3081 3082 3082 3083 3084 3083 3084 3085 3085 3085 3086 3087 3088 3089 3090 3092
3042 3043 3043 3044 3044 3045 3045 3046 3046 3047 3048 3050 3052 3054 3054 3053 3053 3053 3054 3054 3054 3054 3055 3055 3055 3056 3056 3056 3056 3056 3056 3056 3056 3057 3058 3059 3060 3060 3061 3061 3062 3064 3066 3067 3068 3069 3069 3069 3070 3072 3072 3074 3076 3077 3079 3080 3081 3081 3082 3082 3081 3081 3082 3081 3081 3082 3083 3082 3080 3081 3081 3081 3082 3083 3082 3082 3083 3083 3084 3084 3084 3085 3085 3086 3087 3088 3089 3090
3041 3042 3043 3043 3044 3044 3045 3045 3046 3047 3048 3049 3051 3052 3052 3051 3051 3051 3052 3052 3053 3053 3054 3055 3055 3055 3055 3055 3055 3055 3055 3055 3055 3056 3056 3057 3058 3058 3059 3060 3060 3061 3064 3066 3067 3067 3068 3068 3069 3070 3070 3071 3073 3075 3077 3078 3079 3080 3080 3079 3080 3081 3081 3081 3080 3080 3081 3080 3078 3078 3079 3079 3081 3082 3082 3083 3082 3082 3083 3084 3085 3086 3086 3087 3087 3087 3088 3090
3040 3041 3042 3042 3043 3044 3044 3045 3046 3047 3047 3049 3050 3050 3050 3050 3050 3050 3050 3051 3052 3052 3054 3055 3054 3054 3054 3054 3054 3054 3054 3054 3054 3054 3055 3056 3056 3056 3057 3058 3058 3059 3062 3065 3066 3066 3067 3067 3068 3069 3069 3070 3071 3073 3074 3075 3076 3077 3078 3078 3078 3079 3079 3079 3079 3078 3079 3078 3076 3076 3076 3077 3079 3081 3083 3083 3082 3081 3083 3085 3086 3087 3087 3088 3088 3088 3088 3089
3040 3041 3042 3042 3042 3043 3044 3045 3045 3046 3047 3049 3050 3049 3049 3049 3048 3049 3049 3050 3051 3052 3053 3054 3053 3053 3053 3053 3053 3053 3053 3053 3053 3053 3053 3054 3054 3054 3055 3056 3057 3058 3061 3063 3065 3065 3066 3067 3066 3067 3068 3069 3070 3071 3072 3073 3074 3075 3076 3076 3077 3077 3076 3076 3076 3076 3075 3074 3074 3075 3075 3076 3078 3080 3082 3082 3081 3081 3082 3085 3087 3087 3088 3088 3088 3088 3089 3090
3039 3041 3041 3042 3042 3043 3043 3044 3045 3046 3047 3048 3049 3048 3048 3047 3047 3047 3048 3048 3049 3050 3052 3052 3052 3052 3052 3052 3053 3053 3052 3052 3052 3052 3052 3053 3054 3054 3054 3055 3056 3057 3058 3061 3063 3064 3065 3066 3066 3066 3067 3068 3068 3069 3069 3071 3072 3073 3074 3074 3075 3076 3076 3075 3075 3074 3073 3071 3071 3073 3074 3076 3078 3079 3080 3079 3079 3081 3082 3084 3086 3087 3087 3087 3087 3088 3089 3090
3039 3040 3041 3041 3041 3042 3043 3044 3045 3046 3047 3047 3047 3046 3046 3046 3046 3046 3046 3047 3047 3049 3049 3050 3051 3051 3051 3052 3052 3052 3052 3052 3052 3051 3052 3052 3053 3052 3052 3053 3054 3056 3057 3059 3061 3062 3064 3065 3065 3064 3065 3066 3066 3066 3068 3069 3070 3071 3072 3072 3073 3073 3073 3073 3072 3073 3073 3072 3071 3070 3072 3077 3078 3077 3078 3078 3079 3081 3081 3083 3085 3086 3086 3087 3087 3088 3090 3091
3039 3040 3040 3040 3041 3042 3043 3044 3044 3044 3045 3046 3045 3045 3044 3044 3045 3045 3045 3045 3046 3047 3047 3048 3049 3049 3050 3050 3051 3051 3051 3051 3051 3051 3051 3052 3051 3051 3051 3052 3053 3054 3056 3058 3059 3060 3062 3063 3063 3063 3063 3064 3064 3065 3066 3067 3068 3069 3070 3070 3071 3071 3071 3071 3070 3070 3071 3072 3072 3071 3072 3077 3078 3076 3077 3078 3079 3080 3081 3082 3084 3085 3086 3087 3087 3088 3089 3090
3038 3040 3040 3040 3040 3041 3042 3044 3044 3044 3044 3044 3043 3043 3043 3043 3044 3044 3044 3044 3045 3046 3047 3047 3048 3048 3049 3049 3049 3050 3050 3050 3050 3050 3050 3051 3050 3049 3050 3051 3052 3053 3055 3057 3058 3058 3059 3061 3061 3062 3062 3063 3063 3064 3065 3066 3066 3068 3068 3068 3068 3069 3070 3070 3069 3070 3071 3071 3071 3070 3070 3075 3077 3076 3076 3077 3078 3079 3080 3082 3084 3085 3086 3086 3086 3088 3088 3088
3038 3039 3039 3039 3040 3040 3042 3043 3044 3044 3043 3042 3043 3043 3042 3042 3042 3043 3044 3044 3045 3046 3046 3046 3047 3047 3048 3048 3048 3049 3049 3049 3049 3049 3049 3050 3049 3048 3049 3050 3051 3052 3053 3055 3056 3056 3057 3059 3059 3059 3060 3061 3062 3062 3063 3064 3065 3066 3066 3066 3066 3067 3068 3069 3069 3070 3071 3070 3070 3070 3069 3073 3076 3076 3076 3076 3077 3078 3080 3081 3082 3084 3085 3085 3086 3086 3086 3086
3037 3038 3038 3039 3039 3040 3041 3042 3042 3043 3042 3041 3042 3042 3042 3042 3042 3042 3043 3043 3044 3044 3045 3046 3046 3046 3046 3047 3047 3048 3048 3048 3048 3049 3049 3049 3048 3047 3047 3049 3049 3050 3051 3052 3054 3055 3056 3057 3057 3055 3055 3056 3057 3057 3059 3061 3062 3063 3063 3064 3065 3066 3067 3068 3068 3069 3068 3068 3069 3069 3069 3072 3075 3075 3075 3075 3077 3078 3079 3080 3082 3083 3084 3084 3085 3085 3085 3086
3037 3038 3038 3038 3039 3039 3040 3040 3040 3042 3042 3041 3042 3042 3042 3043 3042 3041 3042 3043 3043 3043 3044 3045 3045 3045 3046 3046 3046 3047 3047 3047 3047 3048 3048 3048 3047 3046 3047 3048 3048 3048 3049 3051 3052 3053 3054 3054 3054 3053 3052 3052 3052 3054 3056 3058 3060 3061 3062 3063 3064 3064 3065 3067 3068 3068 3068 3067 3068 3068 3068 3071 3073 3074 3074 3075 3076 3077 3078 3080 3081 3082 3083 3083 3084 3084 3085 3086
3036 3038 3038 3038 3039 3039 3039 3040 3040 3041 3041 3041 3042 3042 3042 3043 3042 3042 3042 3043 3043 3043 3044 3044 3044 3045 3045 3045 3045 3046 3046 3046 3046 3047 3047 3047 3046 3046 3046 3047 3047 3048 3049 3049 3050 3051 3051 3052 3052 3052 3052 3052 3052 3053 3054 3056 3058 3059 3060 3061 3062 3063 3064 3065 3066 3067 3068 3068 3067 3068 3069 3070 3072 3073 3073 3074 3075 3076 3078 3079 3080 3081 3082 3082 3083 3083 3084 3085
3036 3037 3037 3037 3039 3039 3039 3040 3039 3040 3040 3040 3041 3041 3042 3042 3042 3042 3042 3042 3043 3043 3044 3044 3045 3044 3044 3044 3045 3045 3045 3046 3046 3045 3046 3046 3045 3045 3046 3046 3046 3046 3047 3047 3048 3049 3049 3049 3050 3051 3051 3052 3052 3053 3053 3055 3056 3057 3058 3060 3061 3062 3063 3063 3064 3066 3067 3067 3067 3068 3069 3069 3071 3072 3072 3074 3075 3076 3077 3078 3079 3080 3081 3082 3082 3083 3083 3084
3035 3036 3036 3037 3038 3038 3039 3039 3039 3039 3040 3040 3040 3041 3041 3042 3042 3042 3042 3042 3043 3043 3044 3044 3044 3044 3044 3044 3044 3044 3044 3045 3045 3045 3045 3045 3044 3045 3045 3045 3045 3045 3044 3045 3046 3047 3048 3048 3048 3049 3050 3050 3051 3052 3053 3054 3055 3056 3057 3058 3059 3060 3061 3062 3063 3064 3065 3066 3067 3068 3068 3068 3070 3071 3072 3073 3074 3075 3077 3077 3078 3080 3081 3081 3082 3082 3083 3083
3034 3035 3036 3036 3037 3037 3037 3038 3038 3040 3040 3040 3040 3041 3041 3041 3041 3041 3042 3042 3043 3043 3043 3043 3043 3043 3043 3043 3043 3043 3043 3043 3044 3043 3044 3044 3044 3044 3044 3044 3044 3044 3044 3045 3046 3046 3046 3046 3045 3047 3049 3049 3050 3051 3052 3053 3053 3054 3055 3056 3058 3059 3060 3061 3062 3063 3064 3065 3065 3066 3067 3068 3069 3070 3071 3072 3073 3075 3076 3077 3078 3079 3080 3081 3081 3081 3082 3083
3034 3035 3035 3036 3037 3037 3037 3038 3038 3040 3041 3040 3041 3041 3040 3040 3041 3041 3041 3042 3042 3042 3042 3042 3042 3042 3042 3042 3042 3042 3042 3042 3042 3042 3042 3043 3043 3043 3043 3043 3043 3042 3042 3044 3046 3046 3045 3044 3044 3046 3048 3049 3050 3050 3052 3053 3053 3053 3054 3055 3056 3058 3059 3060 3061 3062 3064 3064 3065 3065 3066 3067 3068 3069 3070 3071 3072 3074 3075 3076 3077 3078 3079 3080 3080 3081 3081 3082
3033 3034 3035 3036 3037 3037 3037 3038 3038 3040 3040 3040 3040 3040 3040 3040 3040 3040 3041 3041 3041 3041 3041 3041 3041 3041 3042 3042 3041 3041 3041 3041 3041 3041 3041 3042 3042 3042 3043 3042 3042 3042 3042 3043 3045 3045 3044 3044 3044 3045 3046 3048 3049 3050 3052 3054 3053 3053 3053 3054 3055 3057 3058 3059 3060 3061 3063 3064 3065 3065 3065 3066 3067 3068 3069 3070 3072 3073 3074 3075 3076 3077 3078 3079 3080 3081 3081 3082